SCOUT G-1 DEB, 15951

Orbit data source: Space-Track

SCOUT G-1 DEB, 15951 is space debris in LEO originally from a launch on Sat, 03 Aug 1985 UTC launched from the Air Force Western Test Range (AFWTR). Debris objects in space refer to the collection of defunct objects orbiting the Earth. Examples of debris include non-operational satellites, rocket bodies, and fragments generated from explosions, collisions, or faulty payload assembly.

Loading next visibility...
Identifier
15951, 1985-066E
Orbit
LEO
Country
Flag of USUS
Related business
Manufacturer
Unknown
Mission
Spacecraft
Bus & Motor
Unknown
Mass
Unknown
Launch date (UTC)
1985-08-03 (41 years ago)
Launch vehicle
Unknown
Launch site
Air Force Western Test Range (AFWTR)
Object type
Payload
Rocket body
Debris
Shape & HBR
Unknown shape, 0.1 m
Radar Cross Section
Medium (>0.1 m² and <1 m²)

Expand to show TLE details & history
Last TLE update: 2 days ago

TLE from 2 days ago
0 SCOUT G-1 DEB
1 15951U 85066E   26171.48201426  .00003564  00000-0  22100-2 0  9995
2 15951  89.8585 175.6618 0105892 294.3775 220.5501 14.02251016 34983
Epoch: 2026-06-20T11:34Z
TLE epoch observation values (Epoch: 2026-06-20T11:34:06.032Z)
Latitude
25.88343°
Longitude
-86.62764°
Altitude
948.069 km
Speed
7.35 km/s
True Right ascension
23h 42m 22s
True Declination
25° 45' 08"
Sunlit
Object was in daylight at epoch
Visualization orbit readout
Latitude
Unknown
Longitude
Unknown
Altitude
Unknown
Speed
Unknown
Apparent Right ascension
Unknown
Apparent Declination
Unknown
Sunlit
N/A
Visualization observer readout
Local Sidereal Time
23:09:12
Azimuth
Unknown
Elevation
Unknown
Doppler factor
Unknown
Orbital elements
Apogee altitude
959.874 km
Perigee altitude
806.095 km
Semi-major axis
7,261.121 km
Eccentricity
0.01059
Inclination
89.8585°
RAAN
175.6618°
Arg. of periapsis
294.3775°
True anomaly
219.76911°
Mean anomaly
220.5501°
Eccentric anomaly
220.15882°
Mean motion
3.50782 °/min
Orbital period
102.63 mins
BSTAR
0.00221
Loading maneuver chart data...
Computing Atmospheric mass density...
Loading historical data...
Loading historical data...
Loading historical data...
Loading historical data...
Loading historical data...
Loading historical data...
Loading historical data...

Documentation

Showing up to 5 results
|